Year,Month,Day,Hour,Minute,Value (Times are PST for temperature in C)
2017,08,10,00,00,15.30
2017,08,10,00,01,15.30
2017,08,10,00,02,15.30
2017,08,10,00,03,15.30
2017,08,10,00,04,15.30
2017,08,10,00,05,15.30
2017,08,10,00,06,15.30
2017,08,10,00,07,15.30
2017,08,10,00,08,15.30
2017,08,10,00,09,15.30
2017,08,10,00,10,15.30
2017,08,10,00,11,15.30
2017,08,10,00,12,15.30
2017,08,10,00,13,15.30
2017,08,10,00,14,15.40
2017,08,10,00,15,15.40
2017,08,10,00,16,15.40
2017,08,10,00,17,15.40
2017,08,10,00,18,15.40
2017,08,10,00,19,15.40
2017,08,10,00,20,15.40
2017,08,10,00,21,15.40
2017,08,10,00,22,15.40
2017,08,10,00,23,15.40
2017,08,10,00,24,15.40
2017,08,10,00,25,15.40
2017,08,10,00,26,15.40
2017,08,10,00,27,15.40
2017,08,10,00,28,15.40
2017,08,10,00,29,15.40
2017,08,10,00,30,15.40
2017,08,10,00,31,15.30
2017,08,10,00,32,15.30
2017,08,10,00,33,15.30
2017,08,10,00,34,15.30
2017,08,10,00,35,15.30
2017,08,10,00,36,15.30
2017,08,10,00,37,15.30
2017,08,10,00,38,15.30
2017,08,10,00,39,15.30
2017,08,10,00,40,15.30
2017,08,10,00,41,15.20
2017,08,10,00,42,15.20
2017,08,10,00,43,15.20
2017,08,10,00,44,15.20
2017,08,10,00,45,15.20
2017,08,10,00,46,15.20
2017,08,10,00,47,15.20
2017,08,10,00,48,15.10
2017,08,10,00,49,15.10
2017,08,10,00,50,15.10
2017,08,10,00,51,15.00
2017,08,10,00,52,15.00
2017,08,10,00,53,14.90
2017,08,10,00,54,14.90
2017,08,10,00,55,14.80
2017,08,10,00,56,14.80
2017,08,10,00,57,14.80
2017,08,10,00,58,14.70
2017,08,10,00,59,14.60
2017,08,10,01,00,14.60
2017,08,10,01,01,14.50
2017,08,10,01,02,14.40
2017,08,10,01,03,14.30
2017,08,10,01,04,14.30
2017,08,10,01,05,14.20
2017,08,10,01,06,14.10
2017,08,10,01,07,14.10
2017,08,10,01,08,14.00
2017,08,10,01,09,13.90
2017,08,10,01,10,13.90
2017,08,10,01,11,13.80
2017,08,10,01,12,13.80
2017,08,10,01,13,13.80
2017,08,10,01,14,13.70
2017,08,10,01,15,13.70
2017,08,10,01,16,13.60
2017,08,10,01,17,13.60
2017,08,10,01,18,13.50
2017,08,10,01,19,13.50
2017,08,10,01,20,13.50
2017,08,10,01,21,13.40
2017,08,10,01,22,13.40
2017,08,10,01,23,13.40
2017,08,10,01,24,13.40
2017,08,10,01,25,13.40
2017,08,10,01,26,13.30
2017,08,10,01,27,13.30
2017,08,10,01,28,13.30
2017,08,10,01,29,13.30
2017,08,10,01,30,13.30
2017,08,10,01,31,13.20
2017,08,10,01,32,13.20
2017,08,10,01,33,13.20
2017,08,10,01,34,13.20
2017,08,10,01,35,13.20
2017,08,10,01,36,13.20
2017,08,10,01,37,13.20
2017,08,10,01,38,13.20
2017,08,10,01,39,13.20
2017,08,10,01,40,13.20
2017,08,10,01,41,13.20
2017,08,10,01,42,13.20
2017,08,10,01,43,13.20
2017,08,10,01,44,13.20
2017,08,10,01,45,13.10
2017,08,10,01,46,13.10
2017,08,10,01,47,13.10
2017,08,10,01,48,13.10
2017,08,10,01,49,13.20
2017,08,10,01,50,13.20
2017,08,10,01,51,13.20
2017,08,10,01,52,13.20
2017,08,10,01,53,13.10
2017,08,10,01,54,13.10
2017,08,10,01,55,13.10
2017,08,10,01,56,13.10
2017,08,10,01,57,13.10
2017,08,10,01,58,13.10
2017,08,10,01,59,13.10
2017,08,10,02,00,13.10
2017,08,10,02,01,13.10
2017,08,10,02,02,13.10
2017,08,10,02,03,13.10
2017,08,10,02,04,13.10
2017,08,10,02,05,13.10
2017,08,10,06,54,13.40
2017,08,10,06,55,13.40
2017,08,10,06,56,13.40
2017,08,10,06,57,13.50
2017,08,10,06,58,13.50
2017,08,10,06,59,13.50
2017,08,10,07,00,13.60
2017,08,10,07,01,13.60
2017,08,10,07,02,13.60
2017,08,10,07,03,13.70
2017,08,10,07,04,13.70
2017,08,10,07,05,13.70
2017,08,10,07,06,13.70
2017,08,10,07,07,13.70
2017,08,10,07,08,13.80
2017,08,10,07,09,13.80
2017,08,10,07,10,13.80
2017,08,10,07,11,13.80
2017,08,10,07,12,13.90
2017,08,10,07,13,13.90
2017,08,10,07,14,13.90
2017,08,10,07,15,14.00
2017,08,10,07,16,14.00
2017,08,10,07,17,14.10
2017,08,10,07,18,14.10
2017,08,10,07,19,14.10
2017,08,10,07,20,14.20
2017,08,10,07,21,14.20
2017,08,10,07,22,14.20
2017,08,10,07,23,14.20
2017,08,10,07,24,14.30
2017,08,10,07,25,14.30
2017,08,10,07,26,14.30
2017,08,10,07,27,14.30
2017,08,10,07,28,14.30
2017,08,10,07,29,14.40
2017,08,10,07,30,14.40
2017,08,10,07,31,14.50
2017,08,10,07,32,14.50
2017,08,10,07,33,14.60
2017,08,10,07,34,14.60
2017,08,10,07,35,14.70
2017,08,10,07,36,14.70
2017,08,10,07,37,14.80
2017,08,10,07,38,14.80
2017,08,10,07,39,14.90
2017,08,10,07,40,14.90
2017,08,10,07,41,15.00
2017,08,10,07,42,15.00
2017,08,10,07,43,15.10
2017,08,10,07,44,15.20
2017,08,10,07,45,15.20
2017,08,10,07,46,15.30
2017,08,10,07,47,15.40
2017,08,10,07,48,15.50
2017,08,10,07,49,15.60
2017,08,10,07,50,15.60
2017,08,10,07,51,15.70
2017,08,10,07,52,15.80
2017,08,10,07,53,15.80
2017,08,10,07,54,15.80
2017,08,10,07,55,15.90
2017,08,10,07,56,15.90
2017,08,10,07,57,16.00
2017,08,10,07,58,16.00
2017,08,10,07,59,16.00
2017,08,10,08,00,16.00
2017,08,10,08,01,16.00
2017,08,10,08,02,16.00
2017,08,10,08,03,16.00
2017,08,10,08,04,16.00
2017,08,10,08,05,15.90
2017,08,10,08,06,15.90
2017,08,10,08,07,15.80
2017,08,10,08,08,15.80
2017,08,10,08,09,15.70
2017,08,10,08,10,15.70
2017,08,10,08,11,15.60
2017,08,10,08,12,15.50
2017,08,10,08,13,15.50
2017,08,10,08,14,15.40
2017,08,10,08,15,15.40
2017,08,10,08,16,15.40
2017,08,10,08,17,15.40
2017,08,10,08,18,15.40
2017,08,10,08,19,15.40
2017,08,10,08,20,15.40
2017,08,10,08,21,15.30
2017,08,10,08,22,15.30
2017,08,10,08,23,15.30
2017,08,10,08,24,15.30
2017,08,10,08,25,15.30
2017,08,10,08,26,15.30
2017,08,10,08,27,15.20
2017,08,10,08,28,15.30
2017,08,10,08,29,15.30
2017,08,10,08,30,15.30
2017,08,10,08,31,15.30
2017,08,10,08,32,15.30
2017,08,10,08,33,15.30
2017,08,10,08,34,15.30
2017,08,10,08,35,15.30
2017,08,10,08,36,15.40
2017,08,10,08,37,15.40
2017,08,10,08,38,15.50
2017,08,10,08,39,15.60
2017,08,10,08,40,15.60
2017,08,10,08,41,15.70
2017,08,10,08,42,15.80
2017,08,10,08,43,15.80
2017,08,10,08,44,15.80
2017,08,10,08,45,15.90
2017,08,10,08,46,15.90
2017,08,10,08,47,16.00
2017,08,10,08,48,16.10
2017,08,10,08,49,16.10
2017,08,10,08,50,16.20
2017,08,10,08,51,16.20
2017,08,10,08,52,16.20
2017,08,10,08,53,16.30
2017,08,10,08,54,16.30
2017,08,10,08,55,16.40
2017,08,10,08,56,16.40
2017,08,10,08,57,16.50
2017,08,10,08,58,16.50
2017,08,10,08,59,16.60
2017,08,10,09,00,16.60
2017,08,10,09,01,16.70
2017,08,10,09,02,16.70
2017,08,10,09,03,16.80
2017,08,10,09,04,16.80
2017,08,10,09,05,16.80
2017,08,10,09,06,16.90
2017,08,10,09,07,16.90
2017,08,10,09,08,16.90
2017,08,10,09,09,17.00
2017,08,10,09,10,17.00
2017,08,10,09,11,17.10
2017,08,10,09,12,17.10
2017,08,10,09,13,17.20
2017,08,10,09,14,17.20
2017,08,10,09,15,17.20
2017,08,10,09,16,17.30
2017,08,10,09,17,17.30
2017,08,10,09,18,17.40
2017,08,10,09,19,17.40
2017,08,10,09,20,17.40
2017,08,10,09,21,17.50
2017,08,10,09,22,17.50
2017,08,10,09,23,17.60
2017,08,10,09,24,17.60
2017,08,10,09,25,17.60
2017,08,10,09,26,17.60
2017,08,10,09,27,17.70
2017,08,10,09,28,17.70
2017,08,10,09,29,17.80
2017,08,10,09,30,17.80
2017,08,10,09,31,17.80
2017,08,10,09,32,17.80
2017,08,10,09,33,17.80
2017,08,10,09,34,17.80
2017,08,10,09,35,17.90
2017,08,10,09,36,17.90
2017,08,10,09,37,18.00
2017,08,10,09,38,18.10
2017,08,10,09,39,18.10
2017,08,10,09,40,18.10
2017,08,10,09,41,18.10
2017,08,10,09,42,18.10
2017,08,10,09,43,18.20
2017,08,10,09,44,18.20
2017,08,10,09,45,18.30
2017,08,10,09,46,18.40
2017,08,10,09,47,18.50
2017,08,10,09,48,18.60
2017,08,10,09,49,18.70
2017,08,10,09,50,18.80
2017,08,10,09,51,18.80
2017,08,10,09,52,18.80
2017,08,10,09,53,18.80
2017,08,10,09,54,18.80
2017,08,10,09,55,18.80
2017,08,10,09,56,18.70
2017,08,10,09,57,18.70
2017,08,10,09,58,18.70
2017,08,10,09,59,18.70
2017,08,10,10,00,18.80
2017,08,10,10,01,18.90
2017,08,10,10,02,18.90
2017,08,10,10,03,18.90
2017,08,10,10,04,19.00
2017,08,10,10,05,19.10
2017,08,10,10,06,19.10
2017,08,10,10,07,19.20
2017,08,10,10,08,19.30
2017,08,10,10,09,19.40
2017,08,10,10,10,19.50
2017,08,10,10,11,19.50
2017,08,10,10,12,19.60
2017,08,10,10,13,19.70
2017,08,10,10,14,19.80
2017,08,10,10,15,19.80
2017,08,10,10,16,19.90
2017,08,10,10,17,19.90
2017,08,10,10,18,19.90
2017,08,10,10,19,19.90
2017,08,10,10,20,20.00
2017,08,10,10,21,20.00
2017,08,10,10,22,20.00
2017,08,10,10,23,20.10
2017,08,10,10,24,20.10
2017,08,10,10,25,20.20
2017,08,10,10,26,20.20
2017,08,10,10,27,20.30
2017,08,10,10,28,20.30
2017,08,10,10,29,20.30
2017,08,10,10,30,20.20
2017,08,10,10,31,20.10
2017,08,10,10,32,19.90
2017,08,10,10,33,19.80
2017,08,10,10,34,19.60
2017,08,10,10,35,19.50
2017,08,10,10,36,19.40
2017,08,10,10,37,19.10
2017,08,10,10,38,19.00
2017,08,10,10,39,18.80
2017,08,10,10,40,18.70
2017,08,10,10,41,18.60
2017,08,10,10,42,18.50
2017,08,10,10,43,18.40
2017,08,10,10,44,18.30
2017,08,10,10,45,18.10
2017,08,10,10,46,18.00
2017,08,10,10,47,17.90
2017,08,10,10,48,17.90
2017,08,10,10,49,17.90
2017,08,10,10,50,17.90
2017,08,10,10,51,17.90
2017,08,10,10,52,17.90
2017,08,10,10,53,17.90
2017,08,10,10,54,18.00
2017,08,10,10,55,18.00
2017,08,10,10,56,18.00
2017,08,10,10,57,18.00
2017,08,10,10,58,18.10
2017,08,10,10,59,18.20
2017,08,10,11,00,18.30
2017,08,10,11,01,18.30
2017,08,10,11,02,18.40
2017,08,10,11,03,18.50
2017,08,10,11,04,18.60
2017,08,10,11,05,18.70
2017,08,10,11,06,18.80
2017,08,10,11,07,18.90
2017,08,10,11,08,19.00
2017,08,10,11,09,19.00
2017,08,10,11,10,19.10
2017,08,10,11,11,19.10
2017,08,10,11,12,19.20
2017,08,10,11,13,19.30
2017,08,10,11,14,19.30
2017,08,10,11,15,19.40
2017,08,10,11,16,19.50
2017,08,10,11,17,19.60
2017,08,10,11,18,19.70
2017,08,10,11,19,19.80
2017,08,10,11,20,19.80
2017,08,10,11,21,19.90
2017,08,10,11,22,19.90
2017,08,10,11,23,20.00
2017,08,10,11,24,20.00
2017,08,10,11,25,20.00
2017,08,10,11,26,20.10
2017,08,10,11,27,20.10
2017,08,10,11,28,20.10
2017,08,10,11,29,20.10
2017,08,10,11,30,20.10
2017,08,10,11,31,20.00
2017,08,10,11,32,20.00
2017,08,10,11,33,19.90
2017,08,10,11,34,19.90
2017,08,10,11,35,19.90
2017,08,10,11,36,19.80
2017,08,10,11,37,19.80
2017,08,10,11,38,19.70
2017,08,10,11,39,19.60
2017,08,10,11,40,19.50
2017,08,10,11,41,19.50
2017,08,10,11,42,19.50
2017,08,10,11,43,19.50
2017,08,10,11,44,19.50
2017,08,10,11,45,19.60
2017,08,10,11,46,19.60
2017,08,10,11,47,19.60
2017,08,10,11,48,19.60
2017,08,10,11,49,19.60
2017,08,10,11,50,19.60
2017,08,10,11,51,19.60
2017,08,10,11,52,19.60
2017,08,10,11,53,19.70
2017,08,10,11,54,19.80
2017,08,10,11,55,19.80
2017,08,10,11,56,19.70
2017,08,10,11,57,19.70
2017,08,10,11,58,19.70
2017,08,10,11,59,19.70
2017,08,10,12,00,19.70
2017,08,10,12,01,19.70
2017,08,10,12,02,19.80
2017,08,10,12,03,19.80
2017,08,10,12,04,19.70
2017,08,10,12,05,19.80
2017,08,10,12,06,19.80
2017,08,10,12,07,19.80
2017,08,10,12,08,19.80
2017,08,10,12,09,19.80
2017,08,10,12,10,19.70
2017,08,10,12,11,19.60
2017,08,10,12,12,19.60
2017,08,10,12,13,19.60
2017,08,10,12,14,19.60
2017,08,10,12,15,19.70
2017,08,10,12,16,19.70
2017,08,10,12,17,19.70
2017,08,10,12,18,19.80
2017,08,10,12,19,19.80
2017,08,10,12,20,19.90
2017,08,10,12,21,20.00
2017,08,10,12,22,20.00
2017,08,10,12,23,20.10
2017,08,10,12,24,20.10
2017,08,10,12,25,20.20
2017,08,10,12,26,20.20
2017,08,10,12,27,20.30
2017,08,10,12,28,20.40
2017,08,10,12,29,20.40
2017,08,10,12,30,20.40
2017,08,10,12,31,20.50
2017,08,10,12,32,20.60
2017,08,10,12,33,20.70
2017,08,10,12,34,20.70
2017,08,10,12,35,20.80
2017,08,10,12,36,20.80
2017,08,10,12,37,20.80
2017,08,10,12,38,20.90
2017,08,10,12,39,20.80
2017,08,10,12,40,20.80
2017,08,10,12,41,20.80
2017,08,10,12,42,20.80
2017,08,10,12,43,20.70
2017,08,10,12,44,20.60
2017,08,10,12,45,20.60
2017,08,10,12,46,20.60
2017,08,10,12,47,20.60
2017,08,10,12,48,20.60
2017,08,10,12,49,20.60
2017,08,10,12,50,20.70
2017,08,10,12,51,20.70
2017,08,10,12,52,20.60
2017,08,10,12,53,20.60
2017,08,10,12,54,20.60
2017,08,10,12,55,20.60
2017,08,10,12,56,20.60
2017,08,10,12,57,20.50
2017,08,10,12,58,20.40
2017,08,10,12,59,20.50
2017,08,10,13,00,20.60
2017,08,10,13,01,20.70
2017,08,10,13,02,20.60
2017,08,10,13,03,20.60
2017,08,10,13,04,20.50
2017,08,10,13,05,20.50
2017,08,10,13,06,20.60
2017,08,10,13,07,20.60
2017,08,10,13,08,20.60
2017,08,10,13,09,20.60
2017,08,10,13,10,20.60
2017,08,10,13,11,20.70
2017,08,10,13,12,20.70
2017,08,10,13,13,20.80
2017,08,10,13,14,20.80
2017,08,10,13,15,20.80
2017,08,10,13,16,20.80
2017,08,10,13,17,20.70
2017,08,10,13,18,20.80
2017,08,10,13,19,20.80
2017,08,10,13,20,20.90
2017,08,10,13,21,21.00
2017,08,10,13,22,21.00
2017,08,10,13,23,21.10
2017,08,10,13,24,21.10
2017,08,10,13,25,21.20
2017,08,10,13,26,21.40
2017,08,10,13,27,21.60
2017,08,10,13,28,21.80
2017,08,10,13,29,21.90
2017,08,10,13,30,22.00
2017,08,10,13,31,22.00
2017,08,10,13,32,22.10
2017,08,10,13,33,22.20
2017,08,10,13,34,22.30
2017,08,10,13,35,22.40
2017,08,10,13,36,22.50
2017,08,10,13,37,22.60
2017,08,10,13,38,22.70
2017,08,10,13,39,22.70
2017,08,10,13,40,22.80
2017,08,10,13,41,22.80
2017,08,10,13,42,22.80
2017,08,10,13,43,22.80
2017,08,10,13,44,22.70
2017,08,10,13,45,22.70
2017,08,10,13,46,22.70
2017,08,10,13,47,22.70
2017,08,10,13,48,22.70
2017,08,10,13,49,22.70
2017,08,10,13,50,22.70
2017,08,10,13,51,22.70
2017,08,10,13,52,22.80
2017,08,10,13,53,22.80
2017,08,10,13,54,22.80
2017,08,10,13,55,22.90
2017,08,10,13,56,22.80
2017,08,10,13,57,22.80
2017,08,10,13,58,22.80
2017,08,10,13,59,22.80
2017,08,10,14,00,22.80
2017,08,10,14,01,22.90
2017,08,10,14,02,23.00
2017,08,10,14,03,23.10
2017,08,10,14,04,23.20
2017,08,10,14,05,23.10
2017,08,10,14,06,23.10
2017,08,10,14,07,23.00
2017,08,10,14,08,23.10
2017,08,10,14,09,23.10
2017,08,10,14,10,23.10
2017,08,10,14,11,23.20
2017,08,10,14,12,23.30
2017,08,10,14,13,23.40
2017,08,10,14,14,23.60
2017,08,10,14,15,23.70
2017,08,10,14,16,23.60
2017,08,10,14,17,23.50
2017,08,10,14,18,23.50
2017,08,10,14,19,23.40
2017,08,10,14,20,23.20
2017,08,10,14,21,23.10
2017,08,10,14,22,23.10
2017,08,10,14,23,23.20
2017,08,10,14,24,23.20
2017,08,10,14,25,23.20
2017,08,10,14,26,23.20
2017,08,10,14,27,23.30
2017,08,10,14,28,23.40
2017,08,10,14,29,23.50
2017,08,10,14,30,23.60
2017,08,10,14,31,23.60
2017,08,10,14,32,23.70
2017,08,10,14,33,23.70
2017,08,10,14,34,23.70
2017,08,10,14,35,23.70
2017,08,10,14,36,23.70
2017,08,10,14,37,23.70
2017,08,10,14,38,23.70
2017,08,10,14,39,23.80
2017,08,10,14,40,23.90
2017,08,10,14,41,23.90
2017,08,10,14,42,24.00
2017,08,10,14,43,24.10
2017,08,10,14,44,24.10
2017,08,10,14,45,24.10
2017,08,10,14,46,24.00
2017,08,10,14,47,23.90
2017,08,10,14,48,23.90
2017,08,10,14,49,23.90
2017,08,10,14,50,23.90
2017,08,10,14,51,23.80
2017,08,10,14,52,23.80
2017,08,10,14,53,23.80
2017,08,10,14,54,23.70
2017,08,10,14,55,23.60
2017,08,10,14,56,23.50
2017,08,10,14,57,23.40
2017,08,10,14,58,23.30
2017,08,10,14,59,23.20
2017,08,10,15,00,23.20
2017,08,10,15,01,23.20
2017,08,10,15,02,23.20
2017,08,10,15,03,23.20
2017,08,10,15,04,23.30
2017,08,10,15,05,23.30
2017,08,10,15,06,23.30
2017,08,10,15,07,23.30
2017,08,10,15,08,23.40
2017,08,10,15,09,23.50
2017,08,10,15,10,23.50
2017,08,10,15,11,23.70
2017,08,10,15,12,23.80
2017,08,10,15,13,23.90
2017,08,10,15,14,24.00
2017,08,10,15,15,24.10
2017,08,10,15,16,24.10
2017,08,10,15,17,24.20
2017,08,10,15,18,24.30
2017,08,10,15,19,24.40
2017,08,10,15,20,24.50
2017,08,10,15,21,24.60
2017,08,10,15,22,24.60
2017,08,10,15,23,24.60
2017,08,10,15,24,24.50
2017,08,10,15,25,24.50
2017,08,10,15,26,24.40
2017,08,10,15,27,24.40
2017,08,10,15,28,24.30
2017,08,10,15,29,24.20
2017,08,10,15,30,24.30
2017,08,10,15,31,24.30
2017,08,10,15,32,24.40
2017,08,10,15,33,24.50
2017,08,10,15,34,24.60
2017,08,10,15,35,24.70
2017,08,10,15,36,24.70
2017,08,10,15,37,24.80
2017,08,10,15,38,24.90
2017,08,10,15,39,25.00
2017,08,10,15,40,25.20
2017,08,10,15,41,25.20
2017,08,10,15,42,25.20
2017,08,10,15,43,25.20
2017,08,10,15,44,25.10
2017,08,10,15,45,25.10
2017,08,10,15,46,25.10
2017,08,10,15,47,25.00
2017,08,10,15,48,25.00
2017,08,10,15,49,25.00
2017,08,10,15,50,25.00
2017,08,10,15,51,25.00
2017,08,10,15,52,25.10
2017,08,10,15,53,25.20
2017,08,10,15,54,25.30
2017,08,10,15,55,25.30
2017,08,10,15,56,25.30
2017,08,10,15,57,25.40
2017,08,10,15,58,25.50
2017,08,10,15,59,25.50
2017,08,10,16,00,25.50
2017,08,10,16,01,25.40
2017,08,10,16,02,25.40
2017,08,10,16,03,25.40
2017,08,10,16,04,25.40
2017,08,10,16,05,25.40
2017,08,10,16,06,25.30
2017,08,10,16,07,25.10
2017,08,10,16,08,25.10
2017,08,10,16,09,25.10
2017,08,10,16,10,25.10
2017,08,10,16,11,24.90
2017,08,10,16,12,24.90
2017,08,10,16,13,24.90
2017,08,10,16,14,24.90
2017,08,10,16,15,24.80
2017,08,10,16,16,24.80
2017,08,10,16,17,24.70
2017,08,10,16,18,24.60
2017,08,10,16,19,24.60
2017,08,10,16,20,24.60
2017,08,10,16,21,24.60
2017,08,10,16,22,24.60
2017,08,10,16,23,24.60
2017,08,10,16,24,24.60
2017,08,10,16,25,24.60
2017,08,10,16,26,24.60
2017,08,10,16,27,24.60
2017,08,10,16,28,24.70
2017,08,10,16,29,24.80
2017,08,10,16,30,24.90
2017,08,10,16,31,25.00
2017,08,10,16,32,25.10
2017,08,10,16,33,25.10
2017,08,10,16,34,25.10
2017,08,10,16,35,25.10
2017,08,10,16,36,25.10
2017,08,10,16,37,25.20
2017,08,10,16,38,25.30
2017,08,10,16,39,25.30
2017,08,10,16,40,25.40
2017,08,10,16,41,25.50
2017,08,10,16,42,25.60
2017,08,10,16,43,25.70
2017,08,10,16,44,25.80
2017,08,10,16,45,25.90
2017,08,10,16,46,25.90
2017,08,10,16,47,25.90
2017,08,10,16,48,25.90
2017,08,10,16,49,25.90
2017,08,10,16,50,26.00
2017,08,10,16,51,25.90
2017,08,10,16,52,25.90
2017,08,10,16,53,25.90
2017,08,10,16,54,25.80
2017,08,10,16,55,25.70
2017,08,10,16,56,25.60
2017,08,10,16,57,25.50
2017,08,10,16,58,25.40
2017,08,10,16,59,25.30
2017,08,10,17,00,25.20
2017,08,10,17,01,25.20
2017,08,10,17,02,25.30
2017,08,10,17,03,25.30
2017,08,10,17,04,25.30
2017,08,10,17,05,25.30
2017,08,10,17,06,25.30
2017,08,10,17,07,25.10
2017,08,10,17,08,25.10
2017,08,10,17,09,25.10
2017,08,10,17,10,25.20
2017,08,10,17,11,25.30
2017,08,10,17,12,25.30
2017,08,10,17,13,25.30
2017,08,10,17,14,25.40
2017,08,10,17,15,25.50
2017,08,10,17,16,25.50
2017,08,10,17,17,25.50
2017,08,10,17,18,25.50
2017,08,10,17,19,25.30
2017,08,10,17,20,25.20
2017,08,10,17,21,25.10
2017,08,10,17,22,25.00
2017,08,10,17,23,24.90
2017,08,10,17,24,24.90
2017,08,10,17,25,24.80
2017,08,10,17,26,24.80
2017,08,10,17,27,24.80
2017,08,10,17,28,24.80
2017,08,10,17,29,24.80
2017,08,10,17,30,24.80
2017,08,10,17,31,24.80
2017,08,10,17,32,24.70
2017,08,10,17,33,24.80
2017,08,10,17,34,24.80
2017,08,10,17,35,24.70
2017,08,10,17,36,24.60
2017,08,10,17,37,24.50
2017,08,10,17,38,24.50
2017,08,10,17,39,24.40
2017,08,10,17,40,24.40
2017,08,10,17,41,24.40
2017,08,10,17,42,24.40
2017,08,10,17,43,24.40
2017,08,10,17,44,24.40
2017,08,10,17,45,24.30
2017,08,10,17,46,24.30
2017,08,10,17,47,24.30
2017,08,10,17,48,24.30
2017,08,10,17,49,24.30
2017,08,10,17,50,24.40
2017,08,10,17,51,24.40
2017,08,10,17,52,24.40
2017,08,10,17,53,24.40
2017,08,10,17,54,24.50
2017,08,10,17,55,24.50
2017,08,10,17,56,24.50
2017,08,10,17,57,24.40
2017,08,10,17,58,24.30
2017,08,10,17,59,24.30
2017,08,10,18,00,24.30
2017,08,10,18,01,24.30
2017,08,10,18,02,24.20
2017,08,10,18,03,24.00
2017,08,10,18,04,24.00
2017,08,10,18,05,23.90
2017,08,10,18,06,23.80
2017,08,10,18,07,23.80
2017,08,10,18,08,23.70
2017,08,10,18,09,23.60
2017,08,10,18,10,23.60
2017,08,10,18,11,23.50
2017,08,10,18,12,23.50
2017,08,10,18,13,23.40
2017,08,10,18,14,23.30
2017,08,10,18,15,23.30
2017,08,10,18,16,23.30
2017,08,10,18,17,23.40
2017,08,10,18,18,23.50
2017,08,10,18,19,23.50
2017,08,10,18,20,23.60
2017,08,10,18,21,23.50
2017,08,10,18,22,23.50
2017,08,10,18,23,23.50
2017,08,10,18,24,23.40
2017,08,10,18,25,23.30
2017,08,10,18,26,23.30
2017,08,10,18,27,23.30
2017,08,10,18,28,23.30
2017,08,10,18,29,23.30
2017,08,10,18,30,23.10
2017,08,10,18,31,22.90
2017,08,10,18,32,22.80
2017,08,10,18,33,22.60
2017,08,10,18,34,22.40
2017,08,10,18,35,22.30
2017,08,10,18,36,22.10
2017,08,10,18,37,22.00
2017,08,10,18,38,21.80
2017,08,10,18,39,21.60
2017,08,10,18,40,21.50
2017,08,10,18,41,21.30
2017,08,10,18,42,21.20
2017,08,10,18,43,21.10
2017,08,10,18,44,21.10
2017,08,10,18,45,21.10
2017,08,10,18,46,21.00
2017,08,10,18,47,21.00
2017,08,10,18,48,20.90
2017,08,10,18,49,20.90
2017,08,10,18,50,20.90
2017,08,10,18,51,21.00
2017,08,10,18,52,21.00
2017,08,10,18,53,21.10
2017,08,10,18,54,21.20
2017,08,10,18,55,21.30
2017,08,10,18,56,21.40
2017,08,10,18,57,21.50
2017,08,10,18,58,21.60
2017,08,10,18,59,21.70
2017,08,10,19,00,21.70
2017,08,10,19,01,21.80
2017,08,10,19,02,21.80
2017,08,10,19,03,21.80
2017,08,10,19,04,21.90
2017,08,10,19,05,21.90
2017,08,10,19,06,22.00
2017,08,10,19,07,22.10
2017,08,10,19,08,22.10
2017,08,10,19,09,22.20
2017,08,10,19,10,22.30
2017,08,10,19,11,22.30
2017,08,10,19,12,22.30
2017,08,10,19,13,22.30
2017,08,10,19,14,22.30
2017,08,10,19,15,22.40
2017,08,10,19,16,22.50
2017,08,10,19,17,22.60
2017,08,10,19,18,22.70
2017,08,10,19,19,22.70
2017,08,10,19,20,22.80
2017,08,10,19,21,22.90
2017,08,10,19,22,22.90
2017,08,10,19,23,23.00
2017,08,10,19,24,23.00
2017,08,10,19,25,23.10
2017,08,10,19,26,23.10
2017,08,10,19,27,23.20
2017,08,10,19,28,23.20
2017,08,10,19,29,23.20
2017,08,10,19,30,23.10
2017,08,10,19,31,23.10
2017,08,10,19,32,22.90
2017,08,10,19,33,22.80
2017,08,10,19,34,22.80
2017,08,10,19,35,22.70
2017,08,10,19,36,22.60
2017,08,10,19,37,22.60
2017,08,10,19,38,22.60
2017,08,10,19,39,22.60
2017,08,10,19,40,22.60
2017,08,10,19,41,22.60
2017,08,10,19,42,22.60
2017,08,10,19,43,22.60
2017,08,10,19,44,22.60
2017,08,10,19,45,22.60
2017,08,10,19,46,22.60
2017,08,10,19,47,22.60
2017,08,10,19,48,22.60
2017,08,10,19,49,22.60
2017,08,10,19,50,22.50
2017,08,10,19,51,22.50
2017,08,10,19,52,22.40
2017,08,10,19,53,22.40
2017,08,10,19,54,22.30
2017,08,10,19,55,22.30
2017,08,10,19,56,22.20
2017,08,10,19,57,22.20
2017,08,10,19,58,22.10
2017,08,10,19,59,22.10
2017,08,10,20,00,22.00
2017,08,10,20,01,22.00
2017,08,10,20,02,22.00
2017,08,10,20,03,22.00
2017,08,10,20,04,22.00
2017,08,10,20,05,22.00
2017,08,10,20,06,22.00
2017,08,10,20,07,22.10
2017,08,10,20,08,22.10
2017,08,10,20,09,22.10
2017,08,10,20,10,22.10
2017,08,10,20,11,22.10
2017,08,10,20,12,22.00
2017,08,10,20,13,22.00
2017,08,10,20,14,21.90
2017,08,10,20,15,21.90
2017,08,10,20,16,21.80
2017,08,10,20,17,21.80
2017,08,10,20,18,21.80
2017,08,10,20,19,21.70
2017,08,10,20,20,21.60
2017,08,10,20,21,21.60
2017,08,10,20,22,21.50
2017,08,10,20,23,21.50
2017,08,10,20,24,21.40
2017,08,10,20,25,21.40
2017,08,10,20,26,21.40
2017,08,10,20,27,21.30
2017,08,10,20,28,21.30
2017,08,10,20,29,21.30
2017,08,10,20,30,21.30
2017,08,10,20,31,21.20
2017,08,10,20,32,21.20
2017,08,10,20,33,21.20
2017,08,10,20,34,21.20
2017,08,10,20,35,21.20
2017,08,10,20,36,21.10
2017,08,10,20,37,21.10
2017,08,10,20,38,21.10
2017,08,10,20,39,21.10
2017,08,10,20,40,21.00
2017,08,10,20,41,21.00
2017,08,10,20,42,21.00
2017,08,10,20,43,20.90
2017,08,10,20,44,20.90
2017,08,10,20,45,20.80
2017,08,10,20,46,20.80
2017,08,10,20,47,20.70
2017,08,10,20,48,20.70
2017,08,10,20,49,20.60
2017,08,10,20,50,20.60
2017,08,10,20,51,20.60
2017,08,10,20,52,20.50
2017,08,10,20,53,20.40
2017,08,10,20,54,20.40
2017,08,10,20,55,20.40
2017,08,10,20,56,20.30
2017,08,10,20,57,20.30
2017,08,10,20,58,20.30
2017,08,10,20,59,20.20
2017,08,10,21,00,20.20
2017,08,10,21,01,20.20
2017,08,10,21,02,20.20
2017,08,10,21,03,20.10
2017,08,10,21,04,20.10
2017,08,10,21,05,20.10
2017,08,10,21,06,20.10
2017,08,10,21,07,20.00
2017,08,10,21,08,20.00
2017,08,10,21,09,20.00
2017,08,10,21,10,20.00
2017,08,10,21,11,19.90
2017,08,10,21,12,19.90
2017,08,10,21,13,19.90
2017,08,10,21,14,19.90
2017,08,10,21,15,19.90
2017,08,10,21,16,19.90
2017,08,10,21,17,19.90
2017,08,10,21,18,19.80
2017,08,10,21,19,19.80
2017,08,10,21,20,19.80
2017,08,10,21,21,19.80
2017,08,10,21,22,19.80
2017,08,10,21,23,19.80
2017,08,10,21,24,19.80
2017,08,10,21,25,19.80
2017,08,10,21,26,19.80
2017,08,10,21,27,19.80
2017,08,10,21,28,19.80
2017,08,10,21,29,19.80
2017,08,10,21,30,19.80
2017,08,10,21,31,19.70
2017,08,10,21,32,19.70
2017,08,10,21,33,19.70
2017,08,10,21,34,19.70
2017,08,10,21,35,19.70
2017,08,10,21,36,19.60
2017,08,10,21,37,19.60
2017,08,10,21,38,19.60
2017,08,10,21,39,19.60
2017,08,10,21,40,19.60
2017,08,10,21,41,19.50
2017,08,10,21,42,19.50
2017,08,10,21,43,19.40
2017,08,10,21,44,19.40
2017,08,10,21,45,19.40
2017,08,10,21,46,19.30
2017,08,10,21,47,19.30
2017,08,10,21,48,19.20
2017,08,10,21,49,19.20
2017,08,10,21,50,19.20
2017,08,10,21,51,19.10
2017,08,10,21,52,19.10
2017,08,10,21,53,19.00
2017,08,10,21,54,19.00
2017,08,10,21,55,18.90
2017,08,10,21,56,18.80
2017,08,10,21,57,18.80
2017,08,10,21,58,18.80
2017,08,10,21,59,18.70
2017,08,10,22,00,18.70
2017,08,10,22,01,18.60
2017,08,10,22,02,18.60
2017,08,10,22,03,18.60
2017,08,10,22,04,18.50
2017,08,10,22,05,18.50
2017,08,10,22,06,18.50
2017,08,10,22,07,18.50